Data No.,UTC Date,UTC Time,Latitude,Longitude,Course(deg),Temp(degC),Sal(psu)
17,2017/9/4,12:20:00,35-35.30N,139-47.22E,155,23.657,26.7221
18,2017/9/4,12:21:00,35-35.11N,139-47.34E,153,23.251,25.5746
19,2017/9/4,12:22:00,35-34.92N,139-47.47E,143,23.25,26.378
20,2017/9/4,12:23:00,35-34.78N,139-47.68E,126,23.588,27.2651
21,2017/9/4,12:24:00,35-34.65N,139-47.90E,125,22.945,25.0205
22,2017/9/4,12:25:00,35-34.51N,139-48.14E,125,23.114,27.2613
23,2017/9/4,12:26:00,35-34.36N,139-48.39E,126,23.145,27.7285
24,2017/9/4,12:27:00,35-34.20N,139-48.66E,127,23.197,26.9688
25,2017/9/4,12:28:00,35-34.03N,139-48.93E,127,23.087,26.8198
26,2017/9/4,12:29:00,35-33.86N,139-49.20E,128,23.115,27.5131
27,2017/9/4,12:30:00,35-33.68N,139-49.48E,127,23.357,27.6497
28,2017/9/4,12:31:00,35-33.51N,139-49.76E,127,23.67,28.0127
29,2017/9/4,12:32:00,35-33.33N,139-50.04E,128,23.712,28.3899
30,2017/9/4,12:33:00,35-33.12N,139-50.31E,136,23.71,28.5095
31,2017/9/4,12:34:00,35-32.88N,139-50.51E,153,23.597,27.4185
32,2017/9/4,12:35:00,35-32.58N,139-50.58E,173,23.647,27.3995
33,2017/9/4,12:36:00,35-32.28N,139-50.62E,172,23.639,25.9969
34,2017/9/4,12:37:00,35-31.97N,139-50.67E,171,23.609,28.132
35,2017/9/4,12:38:00,35-31.66N,139-50.72E,172,23.589,29.0322
36,2017/9/4,12:39:00,35-31.35N,139-50.76E,173,23.566,29.352
37,2017/9/4,12:40:00,35-31.03N,139-50.81E,172,23.538,29.6045
38,2017/9/4,12:41:00,35-30.72N,139-50.86E,170,23.524,29.8767
39,2017/9/4,12:42:00,35-30.41N,139-50.91E,174,23.517,29.8628
40,2017/9/4,12:43:00,35-30.08N,139-50.88E,189,23.504,29.7717
41,2017/9/4,12:44:00,35-29.77N,139-50.80E,193,23.553,29.3667
42,2017/9/4,12:45:00,35-29.47N,139-50.67E,202,23.552,29.6441
43,2017/9/4,12:46:00,35-29.17N,139-50.51E,203,23.587,29.9253
44,2017/9/4,12:47:00,35-28.89N,139-50.33E,210,23.596,29.9851
45,2017/9/4,12:48:00,35-28.66N,139-50.07E,228,23.559,30.0164
46,2017/9/4,12:49:00,35-28.46N,139-49.76E,232,23.54,30.017
47,2017/9/4,12:50:00,35-28.26N,139-49.45E,231,23.537,30.0304
48,2017/9/4,12:51:00,35-28.06N,139-49.15E,229,23.543,30.1666
49,2017/9/4,12:52:00,35-27.84N,139-48.85E,229,23.508,30.1845
50,2017/9/4,12:53:00,35-27.63N,139-48.54E,229,23.496,30.1707
51,2017/9/4,12:54:00,35-27.42N,139-48.23E,231,23.49,30.2202
52,2017/9/4,12:55:00,35-27.22N,139-47.92E,232,23.469,30.2301
53,2017/9/4,12:56:00,35-27.03N,139-47.61E,232,23.435,30.225
54,2017/9/4,12:57:00,35-26.82N,139-47.29E,232,23.423,30.2378
55,2017/9/4,12:58:00,35-26.62N,139-46.97E,233,23.393,30.2891
56,2017/9/4,12:59:00,35-26.44N,139-46.65E,235,23.389,30.3388
57,2017/9/4,13:00:00,35-26.25N,139-46.31E,235,23.387,30.3908
58,2017/9/4,13:01:00,35-26.07N,139-45.98E,236,23.378,30.3843
59,2017/9/4,13:02:00,35-25.89N,139-45.66E,236,23.345,30.4972
60,2017/9/4,13:03:00,35-25.71N,139-45.32E,236,23.337,30.6818
61,2017/9/4,13:04:00,35-25.53N,139-44.99E,236,23.305,30.7376
62,2017/9/4,13:05:00,35-25.35N,139-44.67E,236,23.286,30.7498
63,2017/9/4,13:06:00,35-25.17N,139-44.34E,236,23.301,30.7484
64,2017/9/4,13:07:00,35-25.00N,139-44.02E,236,23.299,30.7704
65,2017/9/4,13:08:00,35-24.82N,139-43.69E,236,23.292,30.7918
66,2017/9/4,13:09:00,35-24.65N,139-43.36E,236,23.281,30.8143
67,2017/9/4,13:10:00,35-24.42N,139-43.13E,209,23.27,30.8317
68,2017/9/4,13:11:00,35-24.14N,139-42.96E,206,23.291,30.8484
69,2017/9/4,13:12:00,35-23.86N,139-42.80E,204,23.3,30.7932
70,2017/9/4,13:13:00,35-23.58N,139-42.65E,204,23.371,30.7394
71,2017/9/4,13:14:00,35-23.28N,139-42.48E,205,23.436,30.5841
72,2017/9/4,13:15:00,35-22.99N,139-42.37E,189,23.416,30.4029
73,2017/9/4,13:16:00,35-22.67N,139-42.39E,173,23.442,30.5177
74,2017/9/4,13:17:00,35-22.35N,139-42.43E,176,23.356,30.4604
75,2017/9/4,13:18:00,35-22.04N,139-42.45E,175,23.276,30.467
76,2017/9/4,13:19:00,35-21.72N,139-42.48E,176,23.226,30.7009
77,2017/9/4,13:20:00,35-21.40N,139-42.50E,178,23.194,30.7974
78,2017/9/4,13:21:00,35-21.08N,139-42.51E,179,23.168,30.8626
79,2017/9/4,13:22:00,35-20.75N,139-42.51E,178,23.137,30.9069
80,2017/9/4,13:23:00,35-20.44N,139-42.52E,179,23.09,30.9554
81,2017/9/4,13:24:00,35-20.17N,139-42.53E,178,23.028,31.0282
82,2017/9/4,13:25:00,35-19.94N,139-42.55E,169,22.968,31.0702
83,2017/9/4,13:26:00,35-19.78N,139-42.66E,145,22.972,31.1636
84,2017/9/4,13:27:00,35-19.63N,139-42.79E,144,23.07,31.2359
85,2017/9/4,13:28:00,35-19.47N,139-42.93E,146,23.13,31.3607
86,2017/9/4,13:29:00,35-19.31N,139-43.05E,146,23.223,31.4684
87,2017/9/4,13:30:00,35-19.15N,139-43.19E,146,23.154,31.5341
88,2017/9/4,13:31:00,35-18.99N,139-43.32E,147,23.154,31.6271
89,2017/9/4,13:32:00,35-18.83N,139-43.44E,146,23.177,31.6701
90,2017/9/4,13:33:00,35-18.66N,139-43.58E,147,23.148,31.7061
91,2017/9/4,13:34:00,35-18.50N,139-43.71E,147,23.13,31.7169
92,2017/9/4,13:35:00,35-18.34N,139-43.83E,146,23.019,31.6714
93,2017/9/4,13:36:00,35-18.17N,139-43.97E,146,22.965,31.8598
94,2017/9/4,13:37:00,35-18.01N,139-44.11E,143,22.915,32.072
95,2017/9/4,13:38:00,35-17.85N,139-44.26E,143,22.897,32.2291
96,2017/9/4,13:39:00,35-17.69N,139-44.40E,144,22.87,32.3022
97,2017/9/4,13:40:00,35-17.53N,139-44.54E,143,22.841,32.3152
98,2017/9/4,13:41:00,35-17.37N,139-44.69E,143,22.813,32.2673
99,2017/9/4,13:42:00,35-17.21N,139-44.84E,143,22.812,32.3105
100,2017/9/4,13:43:00,35-17.04N,139-44.99E,142,22.846,32.3204
101,2017/9/4,13:44:00,35-16.88N,139-45.15E,141,22.884,32.321
102,2017/9/4,13:45:00,35-16.72N,139-45.30E,142,22.826,32.3568
103,2017/9/4,13:46:00,35-16.56N,139-45.45E,143,22.766,32.3284
104,2017/9/4,13:47:00,35-16.39N,139-45.61E,145,22.757,32.2385
105,2017/9/4,13:48:00,35-16.22N,139-45.75E,144,22.835,32.2643
106,2017/9/4,13:49:00,35-16.05N,139-45.89E,144,22.906,32.275
107,2017/9/4,13:50:00,35-15.89N,139-46.03E,145,22.92,32.3196
108,2017/9/4,13:51:00,35-15.72N,139-46.17E,145,22.951,32.2691
109,2017/9/4,13:52:00,35-15.54N,139-46.29E,158,23.007,32.1917
110,2017/9/4,13:53:00,35-15.34N,139-46.34E,171,23.015,32.0165
111,2017/9/4,13:54:00,35-15.14N,139-46.36E,175,23.031,31.8247
112,2017/9/4,13:55:00,35-14.94N,139-46.39E,175,22.987,31.7857
113,2017/9/4,13:56:00,35-14.74N,139-46.40E,176,22.994,31.9129
114,2017/9/4,13:57:00,35-14.53N,139-46.42E,176,23.015,32.0258
115,2017/9/4,13:58:00,35-14.33N,139-46.42E,179,23.014,32.1827
116,2017/9/4,13:59:00,35-14.13N,139-46.42E,180,23.035,32.2804
117,2017/9/4,14:00:00,35-13.92N,139-46.42E,181,23.065,32.3393
118,2017/9/4,14:01:00,35-13.72N,139-46.41E,181,23.047,32.3546
119,2017/9/4,14:02:00,35-13.53N,139-46.41E,179,23.053,32.2862
120,2017/9/4,14:03:00,35-13.32N,139-46.40E,181,23.043,32.3393
121,2017/9/4,14:04:00,35-13.12N,139-46.40E,181,23.049,32.3182
122,2017/9/4,14:05:00,35-12.92N,139-46.39E,182,23.056,32.2569
123,2017/9/4,14:06:00,35-12.72N,139-46.34E,193,23.056,32.2
124,2017/9/4,14:07:00,35-12.50N,139-46.28E,193,23.062,32.1954
125,2017/9/4,14:08:00,35-12.25N,139-46.21E,192,23.066,32.1678
126,2017/9/4,14:09:00,35-11.99N,139-46.13E,193,23.063,32.1717
127,2017/9/4,14:10:00,35-11.71N,139-46.05E,193,23.07,32.1351
128,2017/9/4,14:11:00,35-11.42N,139-45.96E,193,23.063,32.1823
129,2017/9/4,14:12:00,35-11.12N,139-45.87E,193,23.04,32.236
130,2017/9/4,14:13:00,35-10.81N,139-45.78E,194,23.027,32.2109
131,2017/9/4,14:14:00,35-10.50N,139-45.69E,193,23.033,32.2304
132,2017/9/4,14:15:00,35-10.19N,139-45.59E,195,23.05,32.4116
133,2017/9/4,14:16:00,35-09.87N,139-45.48E,196,23.065,32.6297
134,2017/9/4,14:17:00,35-09.55N,139-45.36E,196,23.09,32.7934
135,2017/9/4,14:18:00,35-09.24N,139-45.25E,196,23.137,32.8881
136,2017/9/4,14:19:00,35-08.92N,139-45.13E,196,23.171,33.018
137,2017/9/4,14:20:00,35-08.59N,139-45.01E,196,23.196,33.1704
138,2017/9/4,14:21:00,35-08.27N,139-44.90E,196,23.244,33.2694
139,2017/9/4,14:22:00,35-07.94N,139-44.78E,196,23.311,33.3421
140,2017/9/4,14:23:00,35-07.61N,139-44.66E,196,23.384,33.5001
141,2017/9/4,14:24:00,35-07.30N,139-44.54E,196,23.385,33.6207
142,2017/9/4,14:25:00,35-06.97N,139-44.42E,196,23.389,33.6392
143,2017/9/4,14:26:00,35-06.65N,139-44.30E,197,23.361,33.6217
144,2017/9/4,14:27:00,35-06.32N,139-44.18E,197,23.387,33.5923
145,2017/9/4,14:28:00,35-06.00N,139-44.05E,198,23.517,33.5008
146,2017/9/4,14:29:00,35-05.68N,139-43.92E,198,23.656,33.4373
147,2017/9/4,14:30:00,35-05.35N,139-43.81E,193,23.648,33.4272
148,2017/9/4,14:31:00,35-05.03N,139-43.72E,191,23.767,33.3843
149,2017/9/4,14:32:00,35-04.70N,139-43.64E,192,24.058,33.3569
150,2017/9/4,14:33:00,35-04.37N,139-43.55E,192,24.377,33.4332
151,2017/9/4,14:34:00,35-04.04N,139-43.46E,192,24.34,33.5597
152,2017/9/4,14:35:00,35-03.71N,139-43.37E,192,24.348,33.6058
153,2017/9/4,14:36:00,35-03.38N,139-43.27E,193,24.392,33.587
154,2017/9/4,14:37:00,35-03.05N,139-43.18E,193,24.367,33.605
155,2017/9/4,14:38:00,35-02.71N,139-43.09E,193,24.483,33.5777
156,2017/9/4,14:39:00,35-02.39N,139-42.99E,193,24.549,33.5967
157,2017/9/4,14:40:00,35-02.05N,139-42.90E,193,24.601,33.6439
158,2017/9/4,14:41:00,35-01.73N,139-42.81E,193,24.691,33.6485
159,2017/9/4,14:42:00,35-01.39N,139-42.71E,193,24.656,33.6746
160,2017/9/4,14:43:00,35-01.07N,139-42.62E,193,24.599,33.6987
161,2017/9/4,14:44:00,35-00.74N,139-42.53E,193,24.727,33.6393
162,2017/9/4,14:45:00,35-00.40N,139-42.43E,192,24.658,33.6616
163,2017/9/4,14:46:00,35-00.08N,139-42.34E,193,24.59,33.6691
164,2017/9/4,14:47:00,34-59.74N,139-42.25E,192,24.582,33.6264
165,2017/9/4,14:48:00,34-59.41N,139-42.15E,192,24.615,33.6019
166,2017/9/4,14:49:00,34-59.09N,139-42.06E,192,24.604,33.6298
167,2017/9/4,14:50:00,34-58.75N,139-41.97E,192,24.69,33.6544
168,2017/9/4,14:51:00,34-58.43N,139-41.88E,192,24.739,33.6546
169,2017/9/4,14:52:00,34-58.09N,139-41.82E,182,24.759,33.692
170,2017/9/4,14:53:00,34-57.79N,139-41.93E,157,24.853,33.6921
171,2017/9/4,14:54:00,34-57.50N,139-42.08E,156,24.971,33.7424
172,2017/9/4,14:55:00,34-57.19N,139-42.25E,154,25.071,33.8056
173,2017/9/4,14:56:00,34-56.93N,139-42.48E,140,25.116,33.862
174,2017/9/4,14:57:00,34-56.69N,139-42.74E,139,25.089,33.8979
175,2017/9/4,14:58:00,34-56.43N,139-43.01E,138,25.118,33.9092
176,2017/9/4,14:59:00,34-56.18N,139-43.28E,139,25.122,33.9019
177,2017/9/4,15:00:00,34-55.92N,139-43.55E,139,25.099,33.922
178,2017/9/4,15:01:00,34-55.66N,139-43.83E,138,25.254,33.9201
179,2017/9/4,15:02:00,34-55.40N,139-44.10E,138,25.286,33.9524
180,2017/9/4,15:03:00,34-55.14N,139-44.38E,138,25.337,34.0037
181,2017/9/4,15:04:00,34-54.88N,139-44.66E,138,25.325,34.0233
182,2017/9/4,15:05:00,34-54.62N,139-44.93E,138,25.39,34.0266
183,2017/9/4,15:06:00,34-54.36N,139-45.21E,138,25.359,34.037
184,2017/9/4,15:07:00,34-54.11N,139-45.48E,138,25.345,34.0437
185,2017/9/4,15:08:00,34-53.85N,139-45.75E,139,25.361,34.0357
186,2017/9/4,15:09:00,34-53.59N,139-46.02E,139,25.289,34.0395
187,2017/9/4,15:10:00,34-53.34N,139-46.28E,139,24.465,34.0532
188,2017/9/4,15:11:00,34-53.08N,139-46.55E,139,24.323,33.8783
189,2017/9/4,15:12:00,34-52.82N,139-46.82E,139,24.372,33.6437
190,2017/9/4,15:13:00,34-52.56N,139-47.08E,140,24.822,33.6616
191,2017/9/4,15:14:00,34-52.30N,139-47.35E,139,24.31,33.8207
192,2017/9/4,15:15:00,34-52.05N,139-47.61E,139,24.691,33.9379
193,2017/9/4,15:16:00,34-51.80N,139-47.87E,140,24.74,33.9334
194,2017/9/4,15:17:00,34-51.60N,139-48.17E,121,24.765,33.9362
195,2017/9/4,15:18:00,34-51.44N,139-48.51E,118,24.785,33.9377
196,2017/9/4,15:19:00,34-51.30N,139-48.85E,117,24.89,33.9155
197,2017/9/4,15:20:00,34-51.14N,139-49.20E,117,24.94,33.92
198,2017/9/4,15:21:00,34-51.00N,139-49.54E,117,24.996,33.9189
199,2017/9/4,15:22:00,34-50.84N,139-49.89E,117,25.15,33.9225
200,2017/9/4,15:23:00,34-50.69N,139-50.24E,117,25.22,33.9605
201,2017/9/4,15:24:00,34-50.55N,139-50.58E,117,25.215,34.0008
202,2017/9/4,15:25:00,34-50.40N,139-50.92E,117,25.203,34.0141
203,2017/9/4,15:26:00,34-50.25N,139-51.27E,117,25.151,34.0282
204,2017/9/4,15:27:00,34-50.11N,139-51.61E,117,25.248,34.0367
205,2017/9/4,15:28:00,34-49.95N,139-51.96E,117,25.301,34.0529
206,2017/9/4,15:29:00,34-49.81N,139-52.30E,117,25.295,34.0566
207,2017/9/4,15:30:00,34-49.65N,139-52.65E,117,25.268,34.0563
208,2017/9/4,15:31:00,34-49.50N,139-53.00E,118,25.415,34.1004
209,2017/9/4,15:32:00,34-49.36N,139-53.34E,117,25.367,34.2087
210,2017/9/4,15:33:00,34-49.27N,139-53.69E,99,25.205,34.2421
211,2017/9/4,15:34:00,34-49.29N,139-54.06E,79,25.053,34.2192
212,2017/9/4,15:35:00,34-49.41N,139-54.40E,62,24.886,34.1785
213,2017/9/4,15:36:00,34-49.57N,139-54.71E,57,24.974,34.129
214,2017/9/4,15:37:00,34-49.74N,139-55.03E,56,25.128,34.0946
215,2017/9/4,15:38:00,34-49.91N,139-55.33E,56,25.403,34.1487
216,2017/9/4,15:39:00,34-50.08N,139-55.66E,57,25.449,34.2224
217,2017/9/4,15:40:00,34-50.25N,139-55.98E,57,25.402,34.2628
218,2017/9/4,15:41:00,34-50.42N,139-56.30E,57,25.329,34.2493
219,2017/9/4,15:42:00,34-50.60N,139-56.63E,57,25.077,34.2478
220,2017/9/4,15:43:00,34-50.76N,139-56.95E,57,24.832,34.2631
221,2017/9/4,15:44:00,34-50.93N,139-57.28E,57,24.782,34.2386
222,2017/9/4,15:45:00,34-51.11N,139-57.61E,58,24.725,34.2472
223,2017/9/4,15:46:00,34-51.27N,139-57.94E,58,24.707,34.2501
224,2017/9/4,15:47:00,34-51.44N,139-58.27E,57,24.575,34.2602
225,2017/9/4,15:48:00,34-51.62N,139-58.59E,57,24.212,34.2811
226,2017/9/4,15:49:00,34-51.79N,139-58.92E,57,24.078,34.1396
227,2017/9/4,15:50:00,34-51.97N,139-59.25E,57,24.042,34.0492
228,2017/9/4,15:51:00,34-52.14N,139-59.58E,57,24.07,33.9835
229,2017/9/4,15:52:00,34-52.31N,139-59.90E,57,24.052,33.9755
230,2017/9/4,15:53:00,34-52.48N,140-00.24E,57,24.032,33.9665
231,2017/9/4,15:54:00,34-52.66N,140-00.56E,57,24.04,33.9608
232,2017/9/4,15:55:00,34-52.83N,140-00.90E,57,24.038,33.9581
233,2017/9/4,15:56:00,34-53.01N,140-01.23E,57,24.066,33.9607
234,2017/9/4,15:57:00,34-53.18N,140-01.56E,57,24.113,33.9637
235,2017/9/4,15:58:00,34-53.36N,140-01.89E,57,24.125,33.9779
236,2017/9/4,15:59:00,34-53.54N,140-02.23E,57,24.13,33.9848
237,2017/9/4,16:00:00,34-53.71N,140-02.55E,57,24.125,33.9876
238,2017/9/4,16:01:00,34-53.89N,140-02.89E,57,24.13,33.9894
239,2017/9/4,16:02:00,34-54.06N,140-03.22E,57,24.109,33.9913
240,2017/9/4,16:03:00,34-54.23N,140-03.55E,57,24.109,33.9908
241,2017/9/4,16:04:00,34-54.41N,140-03.89E,57,24.106,33.9894
242,2017/9/4,16:05:00,34-54.58N,140-04.22E,57,24.108,33.9855
243,2017/9/4,16:06:00,34-54.76N,140-04.56E,57,24.101,33.9813
244,2017/9/4,16:07:00,34-54.94N,140-04.90E,57,24.096,33.9787
245,2017/9/4,16:08:00,34-55.11N,140-05.22E,57,24.094,33.9771
246,2017/9/4,16:09:00,34-55.29N,140-05.57E,57,24.089,33.9766
247,2017/9/4,16:10:00,34-55.47N,140-05.90E,57,24.086,33.9733
248,2017/9/4,16:11:00,34-55.64N,140-06.23E,57,24.093,33.9724
249,2017/9/4,16:12:00,34-55.82N,140-06.57E,57,24.082,33.9734
250,2017/9/4,16:13:00,34-55.99N,140-06.90E,57,24.085,33.9746
251,2017/9/4,16:14:00,34-56.17N,140-07.23E,57,24.088,33.975
252,2017/9/4,16:15:00,34-56.35N,140-07.57E,57,24.082,33.9726
253,2017/9/4,16:16:00,34-56.52N,140-07.90E,57,24.082,33.9716
254,2017/9/4,16:17:00,34-56.70N,140-08.23E,57,24.083,33.9725
255,2017/9/4,16:18:00,34-56.87N,140-08.58E,57,24.086,33.9747
256,2017/9/4,16:19:00,34-57.04N,140-08.91E,57,24.083,33.9799
257,2017/9/4,16:20:00,34-57.22N,140-09.25E,57,24.077,33.9824
258,2017/9/4,16:21:00,34-57.39N,140-09.58E,58,24.078,33.9854
259,2017/9/4,16:22:00,34-57.56N,140-09.92E,58,24.067,33.9885
260,2017/9/4,16:23:00,34-57.74N,140-10.26E,58,24.065,33.9909
261,2017/9/4,16:24:00,34-57.90N,140-10.59E,58,24.056,33.9919
262,2017/9/4,16:25:00,34-58.08N,140-10.93E,58,24.059,33.9929
263,2017/9/4,16:26:00,34-58.25N,140-11.26E,58,24.048,33.9946
264,2017/9/4,16:27:00,34-58.41N,140-11.59E,58,24.043,33.9925
265,2017/9/4,16:28:00,34-58.58N,140-11.93E,58,24.021,33.9941
266,2017/9/4,16:29:00,34-58.74N,140-12.26E,59,23.968,33.9929
267,2017/9/4,16:30:00,34-58.91N,140-12.59E,58,23.932,33.983
268,2017/9/4,16:31:00,34-59.08N,140-12.93E,58,23.912,33.9617
269,2017/9/4,16:32:00,34-59.25N,140-13.26E,58,23.875,33.9476
270,2017/9/4,16:33:00,34-59.41N,140-13.59E,59,23.881,33.9454
271,2017/9/4,16:34:00,34-59.58N,140-13.93E,59,23.898,33.9365
272,2017/9/4,16:35:00,34-59.74N,140-14.26E,59,23.847,33.9429
273,2017/9/4,16:36:00,34-59.91N,140-14.59E,59,23.804,33.9436
274,2017/9/4,16:37:00,35-00.07N,140-14.93E,59,23.85,33.9321
275,2017/9/4,16:38:00,35-00.23N,140-15.25E,59,23.958,33.9286
276,2017/9/4,16:39:00,35-00.40N,140-15.59E,59,24.006,33.9693
277,2017/9/4,16:40:00,35-00.56N,140-15.92E,59,24.009,34.0069
278,2017/9/4,16:41:00,35-00.72N,140-16.24E,59,24.034,34.0174
279,2017/9/4,16:42:00,35-00.88N,140-16.57E,59,24.081,34.0184
280,2017/9/4,16:43:00,35-01.04N,140-16.90E,59,24.07,34.0339
281,2017/9/4,16:44:00,35-01.20N,140-17.22E,59,24.052,34.0339
282,2017/9/4,16:45:00,35-01.36N,140-17.55E,59,24.074,34.0174
283,2017/9/4,16:46:00,35-01.52N,140-17.88E,59,24.043,34.012
284,2017/9/4,16:47:00,35-01.68N,140-18.20E,59,24.079,34.011
285,2017/9/4,16:48:00,35-01.84N,140-18.54E,58,24.157,34.0122
286,2017/9/4,16:49:00,35-02.01N,140-18.86E,58,24.06,34.0564
287,2017/9/4,16:50:00,35-02.17N,140-19.19E,58,23.799,34.0192
288,2017/9/4,16:51:00,35-02.33N,140-19.52E,61,23.799,33.8209
289,2017/9/4,16:52:00,35-02.47N,140-19.85E,62,23.773,33.7814
290,2017/9/4,16:53:00,35-02.60N,140-20.19E,63,23.775,33.7639
291,2017/9/4,16:54:00,35-02.74N,140-20.52E,64,23.781,33.7522
292,2017/9/4,16:55:00,35-02.88N,140-20.86E,64,23.791,33.7424
293,2017/9/4,16:56:00,35-03.02N,140-21.20E,64,23.798,33.7464
294,2017/9/4,16:57:00,35-03.15N,140-21.54E,64,23.85,33.7534
295,2017/9/4,16:58:00,35-03.29N,140-21.88E,64,23.887,33.7713
296,2017/9/4,16:59:00,35-03.42N,140-22.22E,64,23.775,33.7904
297,2017/9/4,17:00:00,35-03.56N,140-22.56E,64,23.769,33.774
298,2017/9/4,17:01:00,35-03.69N,140-22.90E,64,23.804,33.6681
299,2017/9/4,17:02:00,35-03.83N,140-23.24E,64,23.771,33.6844
300,2017/9/4,17:03:00,35-03.96N,140-23.58E,64,23.8,33.6653
301,2017/9/4,17:04:00,35-04.09N,140-23.92E,65,23.81,33.6769
302,2017/9/4,17:05:00,35-04.22N,140-24.27E,65,23.854,33.6937
303,2017/9/4,17:06:00,35-04.35N,140-24.60E,64,23.85,33.7199
304,2017/9/4,17:07:00,35-04.49N,140-24.94E,62,23.817,33.7481
305,2017/9/4,17:08:00,35-04.64N,140-25.26E,60,23.746,33.7532
306,2017/9/4,17:09:00,35-04.79N,140-25.59E,60,23.581,33.7483
307,2017/9/4,17:10:00,35-04.95N,140-25.92E,60,23.507,33.7012
308,2017/9/4,17:11:00,35-05.10N,140-26.24E,60,23.521,33.6752
309,2017/9/4,17:12:00,35-05.25N,140-26.58E,60,23.49,33.6775
310,2017/9/4,17:13:00,35-05.41N,140-26.91E,60,23.931,33.6942
311,2017/9/4,17:14:00,35-05.56N,140-27.23E,60,24.448,33.7364
312,2017/9/4,17:15:00,35-05.71N,140-27.57E,61,24.512,34.0537
313,2017/9/4,17:16:00,35-05.86N,140-27.90E,61,24.429,34.1704
314,2017/9/4,17:17:00,35-06.01N,140-28.22E,61,24.336,34.1963
315,2017/9/4,17:18:00,35-06.16N,140-28.55E,60,24.265,34.1886
316,2017/9/4,17:19:00,35-06.31N,140-28.87E,61,24.399,34.1772
317,2017/9/4,17:20:00,35-06.45N,140-29.20E,61,24.483,34.213
318,2017/9/4,17:21:00,35-06.60N,140-29.53E,61,24.594,34.2491
319,2017/9/4,17:22:00,35-06.74N,140-29.85E,61,24.73,34.2771
320,2017/9/4,17:23:00,35-06.89N,140-30.17E,61,24.77,34.3042
321,2017/9/4,17:24:00,35-07.03N,140-30.50E,62,24.745,34.3399
322,2017/9/4,17:25:00,35-07.17N,140-30.82E,62,24.749,34.3377
323,2017/9/4,17:26:00,35-07.31N,140-31.14E,62,24.776,34.3355
324,2017/9/4,17:27:00,35-07.46N,140-31.46E,62,24.801,34.3308
325,2017/9/4,17:28:00,35-07.59N,140-31.78E,61,24.859,34.3336
326,2017/9/4,17:29:00,35-07.79N,140-32.03E,40,24.913,34.3439
327,2017/9/4,17:30:00,35-08.02N,140-32.22E,32,24.951,34.3518
328,2017/9/4,17:31:00,35-08.26N,140-32.40E,32,24.976,34.352
329,2017/9/4,17:32:00,35-08.50N,140-32.59E,32,24.934,34.3601
330,2017/9/4,17:33:00,35-08.74N,140-32.78E,33,24.938,34.334
331,2017/9/4,17:34:00,35-08.98N,140-32.98E,33,24.931,34.3256
332,2017/9/4,17:35:00,35-09.22N,140-33.17E,33,24.845,34.3401
333,2017/9/4,17:36:00,35-09.46N,140-33.37E,34,24.834,34.3448
334,2017/9/4,17:37:00,35-09.70N,140-33.57E,34,24.741,34.3338
335,2017/9/4,17:38:00,35-09.95N,140-33.77E,33,24.739,34.2993
336,2017/9/4,17:39:00,35-10.19N,140-33.97E,34,24.735,34.2814
337,2017/9/4,17:40:00,35-10.42N,140-34.16E,34,24.746,34.2938
338,2017/9/4,17:41:00,35-10.67N,140-34.37E,34,24.759,34.3004
339,2017/9/4,17:42:00,35-10.91N,140-34.57E,34,24.747,34.3172
340,2017/9/4,17:43:00,35-11.15N,140-34.77E,34,24.785,34.3139
341,2017/9/4,17:44:00,35-11.39N,140-34.97E,34,24.861,34.319
342,2017/9/4,17:45:00,35-11.63N,140-35.17E,34,24.924,34.3293
343,2017/9/4,17:46:00,35-11.87N,140-35.37E,34,24.905,34.3444
344,2017/9/4,17:47:00,35-12.12N,140-35.57E,34,24.882,34.3523
345,2017/9/4,17:48:00,35-12.36N,140-35.78E,34,24.905,34.3513
346,2017/9/4,17:49:00,35-12.60N,140-35.98E,34,24.939,34.3509
347,2017/9/4,17:50:00,35-12.85N,140-36.18E,34,24.951,34.3603
348,2017/9/4,17:51:00,35-13.09N,140-36.39E,34,24.964,34.3592
349,2017/9/4,17:52:00,35-13.33N,140-36.59E,34,24.931,34.3527
350,2017/9/4,17:53:00,35-13.57N,140-36.79E,34,24.909,34.3524
351,2017/9/4,17:54:00,35-13.82N,140-37.00E,34,24.939,34.3564
352,2017/9/4,17:55:00,35-14.06N,140-37.20E,34,24.946,34.3607
353,2017/9/4,17:56:00,35-14.31N,140-37.40E,34,24.959,34.3694
354,2017/9/4,17:57:00,35-14.55N,140-37.60E,33,25.025,34.3664
355,2017/9/4,17:58:00,35-14.80N,140-37.80E,34,25.049,34.38
356,2017/9/4,17:59:00,35-15.05N,140-38.00E,34,25.071,34.3909
357,2017/9/4,18:00:00,35-15.29N,140-38.20E,34,25.105,34.3961
358,2017/9/4,18:01:00,35-15.54N,140-38.41E,33,25.177,34.4085
359,2017/9/4,18:02:00,35-15.79N,140-38.61E,33,25.201,34.4253
360,2017/9/4,18:03:00,35-16.03N,140-38.81E,33,25.223,34.4386
361,2017/9/4,18:04:00,35-16.28N,140-39.01E,33,25.251,34.4488
362,2017/9/4,18:05:00,35-16.53N,140-39.21E,33,25.266,34.4565
363,2017/9/4,18:06:00,35-16.78N,140-39.41E,33,25.287,34.459
364,2017/9/4,18:07:00,35-17.03N,140-39.61E,33,25.323,34.4608
365,2017/9/4,18:08:00,35-17.27N,140-39.81E,33,25.362,34.4674
366,2017/9/4,18:09:00,35-17.52N,140-40.01E,33,25.387,34.4777
367,2017/9/4,18:10:00,35-17.78N,140-40.22E,33,25.391,34.4872
368,2017/9/4,18:11:00,35-18.02N,140-40.41E,32,25.408,34.4912
369,2017/9/4,18:12:00,35-18.28N,140-40.61E,32,25.42,34.4859
370,2017/9/4,18:13:00,35-18.53N,140-40.81E,33,25.431,34.4812
371,2017/9/4,18:14:00,35-18.78N,140-41.01E,33,25.454,34.4776
372,2017/9/4,18:15:00,35-19.03N,140-41.21E,33,25.471,34.4839
373,2017/9/4,18:16:00,35-19.28N,140-41.41E,34,25.473,34.4917
374,2017/9/4,18:17:00,35-19.52N,140-41.61E,34,25.466,34.5019
375,2017/9/4,18:18:00,35-19.76N,140-41.82E,34,25.476,34.5037
376,2017/9/4,18:19:00,35-20.01N,140-42.03E,34,25.477,34.5045
377,2017/9/4,18:20:00,35-20.25N,140-42.23E,35,25.485,34.5068
378,2017/9/4,18:21:00,35-20.49N,140-42.44E,34,25.488,34.5084
379,2017/9/4,18:22:00,35-20.74N,140-42.65E,35,25.498,34.5092
380,2017/9/4,18:23:00,35-20.98N,140-42.86E,35,25.508,34.5099
381,2017/9/4,18:24:00,35-21.23N,140-43.07E,34,25.505,34.5117
382,2017/9/4,18:25:00,35-21.47N,140-43.28E,34,25.51,34.5119
383,2017/9/4,18:26:00,35-21.72N,140-43.49E,34,25.511,34.5132
384,2017/9/4,18:27:00,35-21.97N,140-43.70E,34,25.513,34.5157
385,2017/9/4,18:28:00,35-22.21N,140-43.90E,34,25.514,34.5158
386,2017/9/4,18:29:00,35-22.46N,140-44.11E,34,25.514,34.5154
387,2017/9/4,18:30:00,35-22.71N,140-44.32E,34,25.518,34.5161
388,2017/9/4,18:31:00,35-22.95N,140-44.53E,34,25.527,34.5148
389,2017/9/4,18:32:00,35-23.21N,140-44.74E,34,25.538,34.5154
390,2017/9/4,18:33:00,35-23.45N,140-44.94E,35,25.546,34.5145
391,2017/9/4,18:34:00,35-23.69N,140-45.15E,34,25.546,34.515
392,2017/9/4,18:35:00,35-23.94N,140-45.35E,34,25.533,34.5158
393,2017/9/4,18:36:00,35-24.19N,140-45.56E,34,25.52,34.5151
394,2017/9/4,18:37:00,35-24.44N,140-45.77E,34,25.528,34.5132
395,2017/9/4,18:38:00,35-24.69N,140-45.98E,34,25.539,34.5126
396,2017/9/4,18:39:00,35-24.94N,140-46.18E,34,25.547,34.5109
397,2017/9/4,18:40:00,35-25.18N,140-46.39E,33,25.558,34.5116
398,2017/9/4,18:41:00,35-25.44N,140-46.60E,34,25.568,34.5098
399,2017/9/4,18:42:00,35-25.69N,140-46.80E,33,25.579,34.5098
400,2017/9/4,18:43:00,35-25.94N,140-47.01E,34,25.581,34.5098
401,2017/9/4,18:44:00,35-26.19N,140-47.22E,33,25.588,34.5089